Location: Sobotiste
(48.7170°N, 17.4000°E)
Time: 21:21:57
(UTC+01:00)

ZACube-1 - Visible Passes

Search period start: 16 March 2026 00:00
Search period end: 26 March 2026 00:00
Orbit: 536 x 596 km, 97.8° (Epoch: 16 March)

Date Brightness Start Highest point End Pass type
(mag) Time Alt. Az. Time Alt. Az. Time Alt. Az.
16 Mar ? 03:05:56 10° NNE 03:08:28 37° NNE 03:08:28 37° NNE visible
16 Mar ? 04:42:25 10° NNW 04:44:26 14° WNW 04:44:31 14° WNW visible
17 Mar ? 03:06:27 10° NNE 03:09:07 40° NNE 03:09:07 40° NNE visible
17 Mar ? 04:42:58 10° NNW 04:44:56 13° WNW 04:45:10 13° WNW visible
18 Mar ? 03:06:57 10° NNE 03:09:46 43° NNE 03:09:46 43° NNE visible
18 Mar ? 04:43:30 10° NNW 04:45:26 13° WNW 04:45:48 13° WNW visible
19 Mar ? 03:07:27 10° NNE 03:10:24 46° NNE 03:10:24 46° NNE visible
19 Mar ? 04:44:03 10° NNW 04:45:56 13° WNW 04:46:26 13° WNW visible
20 Mar ? 03:07:57 10° NNE 03:11:01 50° NNE 03:11:01 50° NNE visible
20 Mar ? 04:44:35 10° NNW 04:46:25 13° WNW 04:47:04 12° WNW visible
21 Mar ? 03:08:27 10° NNE 03:11:38 54° NNE 03:11:38 54° NNE visible
21 Mar ? 04:45:06 10° NNW 04:46:54 13° WNW 04:47:41 12° WNW visible
22 Mar ? 03:08:56 10° NNE 03:12:15 59° NE 03:12:15 59° NE visible
22 Mar ? 04:45:37 10° NNW 04:47:22 13° WNW 04:48:18 12° WNW visible
23 Mar ? 03:09:24 10° NNE 03:12:51 64° NE 03:12:51 64° NE visible
23 Mar ? 04:46:08 10° NNW 04:47:49 12° WNW 04:48:54 11° WNW visible
24 Mar ? 03:09:52 10° NNE 03:13:28 69° NE 03:13:28 69° NE visible
24 Mar ? 04:46:38 10° NNW 04:48:17 12° WNW 04:49:30 11° WNW visible
25 Mar ? 03:10:20 10° NNE 03:14:03 74° ENE 03:14:03 74° ENE visible
25 Mar ? 04:47:08 10° NW 04:48:43 12° WNW 04:50:05 11° W visible
